Total_Precipitation_Accumulation
0.00 0.01 0.01 0.02 0.02 0.04 0.04 0.05 0.08 0.12 0.15 0.21 0.33 0.49 0.66 0.72 0.82 0.93 1.08 1.10 1.32 1.41 1.58 1.98 2.43 2.74 3.06 3.04 3.07 2.99 3.02 3.18 3.26 3.39 3.43 3.62 3.61 3.61 3.87 4.12 4.18 4.30 4.33 4.17
0.01 0.01 0.01 0.02 0.02 0.03 0.04 0.06 0.13 0.21 0.21 0.31 0.41 0.55 0.73 0.82 0.80 0.99 1.21 1.21 1.54 1.74 1.78 2.02 2.46 2.78 3.03 3.18 3.24 3.29 3.38 3.38 3.48 3.82 4.27 4.63 4.90 4.98 4.97 5.11 5.11 4.97 4.81 4.68
0.01 0.01 0.01 0.01 0.02 0.03 0.05 0.08 0.16 0.27 0.28 0.38 0.50 0.81 0.90 0.85 0.89 1.08 1.32 1.35 1.58 1.84 2.02 1.94 2.05 2.34 2.70 3.02 3.22 3.27 3.53 3.85 4.22 4.70 5.17 5.53 5.81 5.91 5.73 5.53 5.42 5.19 4.95 4.76
0.02 0.01 0.01 0.01 0.02 0.04 0.08 0.08 0.14 0.21 0.26 0.42 0.47 0.86 0.99 0.96 1.14 1.28 1.38 1.29 1.46 1.53 1.75 1.95 2.00 2.13 2.42 2.73 2.97 3.20 3.47 4.06 4.87 5.52 5.97 6.34 6.45 6.38 6.22 5.98 5.62 5.15 4.77 4.42
0.02 0.02 0.02 0.02 0.02 0.02 0.04 0.05 0.10 0.15 0.18 0.30 0.37 0.68 0.99 1.07 1.21 1.38 1.51 1.37 1.38 1.49 1.53 1.65 1.75 1.89 2.20 2.48 2.72 3.04 3.40 4.06 4.75 5.37 5.95 6.34 6.45 6.35 6.09 5.65 5.16 4.65 4.17 3.76
0.02 0.02 0.01 0.02 0.01 0.02 0.02 0.07 0.13 0.19 0.25 0.40 0.37 0.58 1.10 1.29 1.42 1.63 1.65 1.69 1.79 1.68 1.55 1.50 1.51 1.59 1.79 2.08 2.37 2.76 3.17 3.66 4.19 4.56 5.07 5.43 5.60 5.52 5.16 4.66 4.05 3.61 3.31 3.03
0.04 0.03 0.01 0.01 0.02 0.03 0.03 0.09 0.24 0.35 0.42 0.47 0.36 0.64 1.23 1.51 1.52 1.64 1.70 1.80 1.83 1.72 1.63 1.51 1.45 1.46 1.57 1.78 2.09 2.37 2.60 2.99 3.25 3.56 3.98 4.23 4.24 4.08 3.82 3.57 3.29 2.87 2.49 2.15
0.10 0.07 0.03 0.01 0.02 0.03 0.04 0.08 0.29 0.54 0.51 0.52 0.61 1.05 1.57 1.61 1.48 1.47 1.52 1.57 1.58 1.43 1.40 1.42 1.43 1.47 1.58 1.56 1.69 1.88 1.99 2.19 2.33 2.47 2.69 2.74 2.69 2.61 2.58 2.43 2.18 1.92 1.62 1.32
0.18 0.13 0.05 0.03 0.01 0.02 0.03 0.08 0.13 0.28 0.34 0.56 0.98 1.49 1.83 1.68 1.63 1.57 1.41 1.24 1.37 1.30 1.21 1.27 1.32 1.36 1.41 1.37 1.35 1.41 1.48 1.49 1.52 1.55 1.65 1.72 1.70 1.67 1.62 1.50 1.36 1.23 1.11 0.97
0.17 0.15 0.07 0.04 0.03 0.04 0.05 0.08 0.12 0.25 0.55 0.80 1.12 1.60 2.06 2.10 2.04 1.97 1.67 1.35 1.38 1.36 1.33 1.20 1.11 1.16 1.22 1.18 1.18 1.18 1.26 1.19 1.11 1.06 1.07 1.09 1.14 1.08 1.05 1.02 0.95 0.92 0.86 0.80
0.14 0.15 0.12 0.07 0.08 0.11 0.09 0.11 0.15 0.29 0.46 0.80 1.35 1.91 1.95 2.21 2.30 2.09 1.75 1.43 1.41 1.38 1.33 1.27 1.28 1.20 1.19 1.18 1.16 1.10 1.09 1.06 1.00 0.94 0.91 0.83 0.77 0.75 0.73 0.71 0.67 0.63 0.58 0.55
0.15 0.19 0.21 0.13 0.12 0.12 0.14 0.15 0.16 0.37 0.46 0.59 1.17 1.98 2.01 2.24 2.33 2.12 2.02 1.79 1.61 1.56 1.44 1.36 1.36 1.31 1.30 1.17 1.10 1.07 1.02 0.91 0.85 0.84 0.79 0.71 0.65 0.62 0.59 0.57 0.51 0.46 0.45 0.46
0.16 0.30 0.43 0.52 0.42 0.22 0.16 0.15 0.19 0.23 0.36 0.63 1.12 1.94 2.11 2.19 2.10 2.00 1.87 1.85 1.91 1.95 1.79 1.56 1.41 1.24 1.14 1.00 0.90 0.89 0.87 0.82 0.79 0.79 0.79 0.74 0.66 0.59 0.55 0.55 0.51 0.45 0.45 0.45
0.16 0.32 0.60 1.03 0.82 0.39 0.22 0.19 0.23 0.28 0.53 0.78 1.02 1.59 1.91 2.07 2.15 2.19 2.09 2.08 2.00 1.75 1.45 1.25 1.17 1.04 0.95 0.86 0.80 0.76 0.73 0.73 0.73 0.76 0.81 0.79 0.73 0.66 0.61 0.57 0.58 0.52 0.48 0.46
0.20 0.37 0.41 0.47 0.42 0.30 0.27 0.27 0.33 0.37 0.45 0.72 1.01 1.48 1.90 2.05 2.16 2.15 2.16 2.07 1.78 1.54 1.36 1.21 1.12 1.04 0.95 0.83 0.72 0.65 0.64 0.66 0.65 0.72 0.72 0.68 0.64 0.64 0.60 0.56 0.56 0.54 0.48 0.44
0.24 0.45 0.40 0.42 0.38 0.40 0.46 0.45 0.47 0.46 0.54 0.73 1.06 1.57 1.85 2.08 2.14 2.06 2.06 1.97 1.85 1.71 1.56 1.40 1.25 1.13 1.02 0.87 0.77 0.73 0.71 0.70 0.66 0.67 0.67 0.62 0.56 0.54 0.51 0.50 0.47 0.45 0.43 0.42
0.30 0.46 0.57 0.55 0.37 0.57 0.94 0.71 0.62 0.68 0.74 0.96 1.29 1.54 1.53 1.64 1.79 1.87 1.91 1.87 1.82 1.75 1.68 1.56 1.43 1.33 1.18 1.04 0.95 0.90 0.84 0.75 0.71 0.71 0.66 0.62 0.59 0.56 0.49 0.45 0.45 0.44 0.46 0.45
0.29 0.48 0.57 0.62 0.73 1.29 1.26 0.80 0.73 0.82 0.94 0.88 1.02 1.18 1.25 1.31 1.45 1.55 1.60 1.73 1.81 1.80 1.71 1.62 1.49 1.40 1.31 1.17 1.03 0.90 0.78 0.72 0.70 0.70 0.64 0.59 0.57 0.56 0.51 0.50 0.51 0.46 0.46 0.47
0.22 0.45 0.68 0.83 1.15 1.42 1.26 0.82 0.80 1.12 1.36 0.97 0.90 0.93 0.93 0.97 1.16 1.47 1.57 1.69 1.80 1.76 1.68 1.62 1.49 1.40 1.35 1.18 1.01 0.85 0.79 0.71 0.68 0.62 0.56 0.54 0.52 0.54 0.53 0.53 0.51 0.47 0.49 0.52
0.21 0.37 0.73 0.98 1.40 1.70 1.55 0.76 0.54 0.97 1.69 1.07 0.83 0.88 0.98 1.13 1.37 1.38 1.29 1.32 1.51 1.63 1.68 1.63 1.46 1.29 1.19 1.00 0.83 0.76 0.73 0.67 0.63 0.53 0.46 0.44 0.48 0.50 0.49 0.49 0.51 0.50 0.53 0.57
0.50 0.60 0.83 1.11 1.50 1.59 0.92 0.51 0.64 1.42 1.66 1.17 1.01 1.02 1.12 1.32 1.38 1.12 1.01 1.10 1.24 1.40 1.46 1.39 1.29 1.17 0.99 0.80 0.73 0.72 0.64 0.57 0.51 0.44 0.41 0.43 0.49 0.53 0.49 0.48 0.52 0.54 0.54 0.59
0.69 0.94 1.09 1.27 1.59 1.59 0.66 0.50 0.91 1.14 0.91 0.83 0.80 0.78 0.87 0.87 0.83 0.82 0.91 1.05 1.17 1.26 1.23 1.15 1.11 1.00 0.87 0.77 0.75 0.76 0.68 0.56 0.47 0.45 0.44 0.46 0.48 0.40 0.38 0.52 0.56 0.53 0.58 0.62
0.59 0.81 1.01 1.22 1.38 1.08 0.60 0.53 0.58 0.63 0.67 0.64 0.65 0.62 0.66 0.70 0.72 0.75 0.80 0.94 1.04 1.08 1.04 0.93 0.84 0.82 0.80 0.78 0.78 0.77 0.68 0.55 0.51 0.57 0.56 0.52 0.51 0.49 0.51 0.56 0.54 0.52 0.53 0.49
0.59 0.46 0.63 0.86 0.82 0.67 0.55 0.52 0.45 0.43 0.48 0.46 0.47 0.51 0.59 0.70 0.72 0.75 0.73 0.78 0.86 0.86 0.86 0.83 0.77 0.77 0.74 0.71 0.66 0.67 0.59 0.53 0.59 0.65 0.60 0.54 0.54 0.58 0.57 0.52 0.42 0.39 0.36 0.34
0.62 0.70 0.93 1.08 0.85 0.76 0.69 0.56 0.46 0.41 0.37 0.35 0.40 0.43 0.49 0.57 0.60 0.59 0.62 0.65 0.65 0.63 0.66 0.69 0.68 0.64 0.57 0.54 0.49 0.47 0.46 0.49 0.61 0.65 0.61 0.54 0.47 0.48 0.50 0.40 0.28 0.27 0.25 0.22
0.49 0.83 1.32 1.16 0.89 0.91 0.77 0.59 0.50 0.48 0.49 0.46 0.40 0.36 0.38 0.44 0.48 0.49 0.54 0.55 0.52 0.50 0.53 0.55 0.55 0.50 0.45 0.42 0.41 0.40 0.38 0.38 0.49 0.56 0.54 0.47 0.38 0.34 0.30 0.28 0.28 0.21 0.18 0.19